STARLINK-37210

Last updated on Sun Apr 12 2026 00:02:10 GMT+0000 (Coordinated Universal Time)

1 68557U 26070R 26101.50002315 -.01156102 41867-3 -26021-2 0 9992 2 68557 53.1583 220.2182 0000969 58.8944 137.1074 15.97025707 2656
UTC large
Height (km)
Speed (km/s)
/
Latitude / Longitude
Inclination (degrees)
Orbital Period (minutes)
Azimuth
Elevation
Range (km)
Doppler Factor

Next 0 passes for location: London (51.5072 / 0.1276)

Sorry there are no passes over London.
STARLINK-37210